Location: Unspecified
(40.4667°N, 0.0000°E)
Time: 11:22:54
(UTC+00:00)

ISS - Pass Details

Date: 25 May 2019
Orbit: 408 x 418 km, 51.6° (Epoch: 18 June)

Event Time Altitude Azimuth Distance (km) Brightness Sun altitude
Rises 21:21:10 0° 304° (NW) 2,355 1.4 -18.6°
Reaches altitude 10° 21:24:17 10° 336° (NNW) 1,496 0.2 -19.0°
Maximum altitude 21:25:47 12° 2° (N) 1,361 -0.5 -19.2°
Drops below altitude 10° 21:27:16 10° 29° (NNE) 1,498 -0.7 -19.3°
Enters shadow 21:29:59 - 58° (ENE) 2,224 -0.1 -19.6°
